Simultaneous Nadir Overpasses (SNOs) Predictions

Prediction of SNOs between GOES-16 and NOAA-20 Satellite Orbit:

Table of predicted SNOs for the next 14.0 days since TLE Epoch: 10/8/2018
Index Date Time (GOES-16) GOES-16 Lat,Lon NOAA-20 Lat,Lon Distance(km) Time Diff (sec)
1 10/08/2018 18:26:16 -0.02, -75.00 -0.20, -75.77 88.06 80
2 10/09/2018 18:10:11 -0.03, -75.00 0.82, -71.24 428.37 80
3 10/11/2018 06:31:59 0.03, -75.00 0.34, -76.51 171.59 80
4 10/12/2018 06:10:34 0.03, -75.00 -0.62, -71.97 344.96 80
5 10/13/2018 18:32:30 -0.03, -75.00 -0.56, -77.27 259.39 80
6 10/14/2018 18:16:26 -0.03, -75.01 0.46, -72.75 257.53 80
7 10/16/2018 06:38:14 0.03, -75.02 0.69, -78.02 341.36 80
8 10/17/2018 06:16:50 0.03, -75.03 -0.33, -73.49 175.74 80
9 10/18/2018 18:39:41 -0.03, -75.04 -0.85, -78.79 427.72 25
10 10/19/2018 18:22:40 -0.03, -75.05 0.12, -74.25 89.99 80
11 10/22/2018 06:23:04 0.04, -75.09 0.02, -75.00 10.34 80




NCC Satellite Simultaneous Nadir Overpasses (SNOs) Prediction Service
